Home > Weather > San Fernando > Past weeks

Flag for Trinidad and Tobago Weather for the Past 2 Weeks in San Fernando, Trinidad and Tobago

Now
88 °F

Passing clouds.


Feels Like: 93 °F
Forecast: N/A
Wind: 15 mph from East

Location: Piarco International Airport - Trinidad

Current Time: Feb 10, 2016 at 4:38:36 PM

Latest Report: Feb 10, 2016 at 4:00 PM


Visibility: N/A

Pressure: 29.95 "Hg

Humidity: 55%

Dew point: 70 °F

Location of San FernandoLocation

Historic Weather in San Fernando — Graph

°F

San Fernando Temperature Yesterday

Maximum temperature yesterday: 90 °F (at 1:00 PM)
Minimum temperature yesterday: 75 °F (at 12:00 AM)
Average temperature yesterday: 80 °F

High & Low Weather Summary for the Past Weeks

 TemperatureHumidityPressure
High91 °F (Feb 2, 3:00 PM)100% (Feb 3, 5:00 AM)30.07 "Hg (Feb 3, 5:00 AM)
Low70 °F (Feb 3, 5:00 AM)46% (Jan 31, 1:00 PM)29.83 "Hg (Feb 3, 4:00 PM)
Average79 °F78%29.95 "Hg
* Reported Jan 26 3:00 PM — Feb 10 3:00 PM, San Fernando, Weather by CustomWeather, © 2016

Note: Actual official high and low records may vary slightly from our data, if they occured in-between our weather recording intervals... More about our weather records

Advertising

San Fernando Weather History for the Previous 24 Hours

 ConditionsComfort  
Time TempWeatherWind HumidityBarometerVisibility
3:00 PM
Wed, Feb 10
88 °FPassing clouds.15 mph55%29.95 "HgN/A
2:00 PM90 °FPassing clouds.15 mph52%29.98 "HgN/A
1:00 PM90 °FScattered clouds.16 mph55%30.01 "HgN/A
9:00 AM84 °FPassing clouds.12 mph70%30.04 "HgN/A
8:00 AM81 °FPassing clouds.3 mph79%30.04 "HgN/A
7:00 AM73 °FPassing clouds.No wind94%30.01 "HgN/A
6:00 AM75 °FPassing clouds.6 mph83%29.98 "HgN/A
5:00 AM75 °FPassing clouds.6 mph89%29.98 "HgN/A
4:00 AM75 °FPassing clouds.6 mph89%29.95 "HgN/A
3:00 AM75 °FPassing clouds.7 mph89%29.95 "HgN/A
1:00 AM75 °FPassing clouds.No wind89%29.98 "HgN/A
12:00 AM75 °FPassing clouds.No wind89%30.01 "HgN/A
11:00 PM
Tue, Feb 9
77 °FPassing clouds.6 mph83%30.01 "HgN/A
10:00 PM77 °FPassing clouds.8 mph83%30.01 "HgN/A
9:00 PM77 °FPassing clouds.6 mph83%30.01 "HgN/A
8:00 PM77 °FPassing clouds.No wind89%29.98 "HgN/A
7:00 PM79 °FPassing clouds.No wind84%29.98 "HgN/A
6:00 PM82 °FSprinkles. Scattered clouds.12 mph74%29.98 "HgN/A
5:00 PM82 °FScattered clouds.12 mph70%29.95 "HgN/A
4:00 PM86 °FPassing clouds.14 mph59%29.95 "HgN/A
Weather by CustomWeather, © 2016

See weather overviewHow to use our weather pages